(153978) = 2002 AE111

Discovered at Socorro on 2002-01-09 by LINEAR.

Orbit

Orbit type: Main Belt

Note: WebGL enabled browser required.

epoch2024-03-31.0
epoch JD2460400.5
perihelion date2025-05-03.21076
perihelion JD2460798.71076
argument of perihelion (°)180.38468
ascending node (°)341.55288
inclination (°)4.24010
eccentricity0.0502600
perihelion distance (AU)2.6193172
Tisserand w.r.t. Jupiter3.3
ΔV w.r.t. Earth (km/sec)10.2
semimajor axis (AU)2.7579307
mean anomaly (°)274.30770
mean daily motion (°/day)0.21519330
aphelion distance (AU)2.897
period (years)4.58
P-vector [x]-0.95071336
P-vector [y]0.28468178
P-vector [z]0.12288361
Q-vector [x]-0.30918723
Q-vector [y]-0.84047622
Q-vector [z]-0.44497525
absolute magnitude15.95
phase slope0.15
uncertainty0
referenceMPEC 2024-C163
observations used540
oppositions16
arc length (days)9381
first opposition used1998
last opposition used2023
residual rms (arc-secs)0.74
perturbers coarse indicatorM-v
perturbers precise indicator003Ek
first observation date used1998-03-29.0
last observation date used2023-12-04.0
computer nameMPCLINUX
JD of orbit computation2456966.921520
perihelion JD uncertainty (days)3.1796E-04
argument of perihelion uncertainty (°)1.0411E-04
ascending node uncertainty (°)8.1015E-05
inclination uncertainty (°)8.1796E-06
eccentricity uncertainty 8.1887E-08
perihelion distance uncertainty (AU)2.2047E-07
Minimum Orbit Intersection Distances (in AU)
for orbit epoch: 2460200.5, reference: E2024-CG3
Mercury2.22605
Venus1.90114
Earth1.62519
Mars0.9544
Jupiter2.07309
Saturn6.34122
Uranus15.8279
Neptune26.9829

Observations

553 total observations over interval: 1998 03 29.28356 – 2023 12 04.257536
These data are available for download (format description).

Date (UT) J2000 RA J2000 Dec Magn Location Ref
1998 03 29.28356 12 52 00.78 -09 22 00.0 19.9   704 – Lincoln Laboratory ETS, New Mexico MPS 155248
1998 03 29.30396 12 51 59.72 -09 21 57.1 19.6   704 – Lincoln Laboratory ETS, New Mexico MPS 155248
1998 03 29.32410 12 51 58.65 -09 21 52.2 19.6   704 – Lincoln Laboratory ETS, New Mexico MPS 155248
1998 03 29.34445 12 51 57.56 -09 21 49.1 20.5   704 – Lincoln Laboratory ETS, New Mexico MPS 155248
2002 01 09.33791 09 07 47.05 +20 39 45.9 19.7   704 – Lincoln Laboratory ETS, New Mexico MPS 47455
2002 01 09.35307 09 07 46.36 +20 39 47.6 20.1   704 – Lincoln Laboratory ETS, New Mexico MPS 47455
2002 01 09.36824 09 07 45.68 +20 39 50.5 20.3   704 – Lincoln Laboratory ETS, New Mexico MPS 47455
2002 01 14.38266 09 03 51.62 +20 53 16.1 19.6   704 – Lincoln Laboratory ETS, New Mexico MPS 47455
2002 01 14.39789 09 03 50.87 +20 53 18.0 19.6   704 – Lincoln Laboratory ETS, New Mexico MPS 47455
2002 01 14.41309 09 03 50.10 +20 53 20.8 19.6   704 – Lincoln Laboratory ETS, New Mexico MPS 47455
2002 01 14.42831 09 03 49.24 +20 53 22.9 20.0   704 – Lincoln Laboratory ETS, New Mexico MPS 47455
2002 01 14.44417 09 03 48.45 +20 53 25.5 19.9   704 – Lincoln Laboratory ETS, New Mexico MPS 47455
2002 01 21.23852 08 57 48.65 +21 12 09.2 19.1   704 – Lincoln Laboratory ETS, New Mexico MPS 49943
2002 01 21.26814 08 57 46.89 +21 12 14.5 20.0   704 – Lincoln Laboratory ETS, New Mexico MPS 49943
2002 01 21.28304 08 57 46.06 +21 12 16.4 19.4   704 – Lincoln Laboratory ETS, New Mexico MPS 49943
2002 01 21.29785 08 57 45.19 +21 12 18.7 19.3   704 – Lincoln Laboratory ETS, New Mexico MPS 49943
2002 02 03.43406 08 45 00.55 +21 44 33.2 20.4   608 – Haleakala-AMOS MPS 49943
2002 02 03.44496 08 44 59.89 +21 44 34.6 20.2   608 – Haleakala-AMOS MPS 49943
2002 02 03.45567 08 44 59.24 +21 44 36.1 20.0   608 – Haleakala-AMOS MPS 49943
2002 02 04.34597 08 44 07.32 +21 46 22.5 19.2   644 – Palomar Mountain/NEAT MPS 49943
2002 02 04.36697 08 44 06.04 +21 46 25.6 20.4   644 – Palomar Mountain/NEAT MPS 49943
2002 02 04.38812 08 44 04.79 +21 46 27.4 20.0   644 – Palomar Mountain/NEAT MPS 49943
2002 02 07.31062 08 41 16.58 +21 51 54.4 18.8   704 – Lincoln Laboratory ETS, New Mexico MPS 49943
2002 02 07.32507 08 41 15.72 +21 51 55.4 19.6   704 – Lincoln Laboratory ETS, New Mexico MPS 49943
2002 02 07.33952 08 41 14.90 +21 51 55.8 19.9   704 – Lincoln Laboratory ETS, New Mexico MPS 49943
2002 02 07.35393 08 41 14.08 +21 51 58.9 19.9   704 – Lincoln Laboratory ETS, New Mexico MPS 49943
2002 02 07.36836 08 41 13.23 +21 52 00.5 20.0   704 – Lincoln Laboratory ETS, New Mexico MPS 49943
2002 02 10.23390 08 38 33.02 +21 56 35.5 20.1   704 – Lincoln Laboratory ETS, New Mexico MPS 49943
2002 02 10.24804 08 38 32.32 +21 56 36.8 19.9   704 – Lincoln Laboratory ETS, New Mexico MPS 49943
2002 02 10.26509 08 38 31.35 +21 56 37.7 20.0   704 – Lincoln Laboratory ETS, New Mexico MPS 49943
2002 02 10.27922 08 38 30.55 +21 56 38.9 19.7   704 – Lincoln Laboratory ETS, New Mexico MPS 49943
2002 02 10.29529 08 38 29.59 +21 56 40.6 19.9   704 – Lincoln Laboratory ETS, New Mexico MPS 49943
2002 02 11.23871 08 37 38.45 +21 58 01.2 19.4   704 – Lincoln Laboratory ETS, New Mexico MPS 55284
2002 02 11.26894 08 37 36.73 +21 58 02.5 19.6   704 – Lincoln Laboratory ETS, New Mexico MPS 55284
2002 02 11.28341 08 37 35.90 +21 58 04.6 19.9   704 – Lincoln Laboratory ETS, New Mexico MPS 55284
2002 02 11.29801 08 37 35.03 +21 58 05.4 20.2   704 – Lincoln Laboratory ETS, New Mexico MPS 55284
2002 02 12.23591 08 36 44.86 +21 59 18.4 19.4   704 – Lincoln Laboratory ETS, New Mexico MPS 49943
2002 02 12.25015 08 36 44.08 +21 59 19.7 19.9   704 – Lincoln Laboratory ETS, New Mexico MPS 49943
2002 02 12.26438 08 36 43.26 +21 59 21.0 20.2   704 – Lincoln Laboratory ETS, New Mexico MPS 49943
2002 02 12.27885 08 36 42.54 +21 59 21.7 20.2   704 – Lincoln Laboratory ETS, New Mexico MPS 49943
2002 02 12.29307 08 36 41.70 +21 59 23.0 20.0   704 – Lincoln Laboratory ETS, New Mexico MPS 49943
2002 02 13.23965 08 35 51.95 +22 00 30.9 19.5   704 – Lincoln Laboratory ETS, New Mexico MPS 52502
2002 02 13.25442 08 35 51.19 +22 00 32.6 19.6   704 – Lincoln Laboratory ETS, New Mexico MPS 52502
2002 02 13.28412 08 35 49.47 +22 00 34.4 19.9   704 – Lincoln Laboratory ETS, New Mexico MPS 52502
2002 02 13.29917 08 35 48.77 +22 00 35.6 20.1   704 – Lincoln Laboratory ETS, New Mexico MPS 52502
2002 02 13.92897 08 35 16.10 +22 01 17.3 19.5 V 049 – Uppsala-Kvistaberg MPS 49943
2002 02 13.94325 08 35 15.33 +22 01 18.1 19.1 V 049 – Uppsala-Kvistaberg MPS 49943
2002 02 13.95812 08 35 14.54 +22 01 19.0 19.2 V 049 – Uppsala-Kvistaberg MPS 49943
2004 09 07.18340 22 22 35.10 -10 40 59.8 19.4   704 – Lincoln Laboratory ETS, New Mexico MPS 112662
2004 09 07.19463 22 22 34.52 -10 41 01.5 19.4   704 – Lincoln Laboratory ETS, New Mexico MPS 112662
2004 09 07.20592 22 22 33.97 -10 41 03.4 20.0   704 – Lincoln Laboratory ETS, New Mexico MPS 112662
2004 09 07.21720 22 22 33.39 -10 41 06.2 20.1   704 – Lincoln Laboratory ETS, New Mexico MPS 112662
2004 09 09.29047 22 20 52.30 -10 47 41.6 19.6 R 705 – Apache Point MPS 112662
2004 09 09.31315 22 20 51.18 -10 47 46.1 19.7 R 705 – Apache Point MPS 112662
2004 09 09.33577 22 20 50.03 -10 47 50.2 20.2 R 705 – Apache Point MPS 112662
2004 09 13.13305 22 17 52.55 -10 59 07.7 20.3 V 691 – Steward Observatory, Kitt Peak-Spacewatch MPS 112778
2004 09 13.16102 22 17 51.22 -10 59 12.5 20.2 V 691 – Steward Observatory, Kitt Peak-Spacewatch MPS 112778
2004 09 13.18891 22 17 49.94 -10 59 17.7 20.6 V 691 – Steward Observatory, Kitt Peak-Spacewatch MPS 112778
2005 11 10.35455 04 39 00.34 +28 32 15.8 20.3 V 691 – Steward Observatory, Kitt Peak-Spacewatch MPS 155248
2005 11 10.37222 04 38 59.45 +28 32 15.8 20.0 V 691 – Steward Observatory, Kitt Peak-Spacewatch MPS 155248
2005 11 10.38980 04 38 58.54 +28 32 15.5 20.0 V 691 – Steward Observatory, Kitt Peak-Spacewatch MPS 155248
2005 11 28.26948 04 22 01.96 +28 12 48.2 19.6   704 – Lincoln Laboratory ETS, New Mexico MPS 153598
2005 11 28.28340 04 22 00.93 +28 12 46.4 19.8   704 – Lincoln Laboratory ETS, New Mexico MPS 153598
2005 11 28.29621 04 22 00.18 +28 12 44.7 20.0   704 – Lincoln Laboratory ETS, New Mexico MPS 153598
2005 12 01.40577 04 18 48.63 +28 05 55.2 19.9 R 644 – Palomar Mountain/NEAT MPS 153598
2005 12 01.43062 04 18 47.03 +28 05 51.7 19.3 R 644 – Palomar Mountain/NEAT MPS 153598
2005 12 01.45951 04 18 45.25 +28 05 47.4 19.3 R 644 – Palomar Mountain/NEAT MPS 153598
2005 12 02.27232 04 17 55.65 +28 03 52.7 19.6   704 – Lincoln Laboratory ETS, New Mexico MPS 153598
2005 12 02.28552 04 17 54.84 +28 03 51.0 19.7   704 – Lincoln Laboratory ETS, New Mexico MPS 153598
2005 12 02.29840 04 17 54.04 +28 03 49.2 19.4   704 – Lincoln Laboratory ETS, New Mexico MPS 153598
2005 12 02.31140 04 17 53.22 +28 03 46.3 19.7   704 – Lincoln Laboratory ETS, New Mexico MPS 153598
2005 12 02.32493 04 17 52.36 +28 03 45.3 20.0   704 – Lincoln Laboratory ETS, New Mexico MPS 153598
2005 12 05.24402 04 14 55.00 +27 56 21.3 19.5   704 – Lincoln Laboratory ETS, New Mexico MPS 153598
2005 12 05.25732 04 14 54.13 +27 56 19.3 19.8   704 – Lincoln Laboratory ETS, New Mexico MPS 153598
2005 12 05.27041 04 14 53.29 +27 56 17.1 19.6   704 – Lincoln Laboratory ETS, New Mexico MPS 153598
2005 12 05.28352 04 14 52.53 +27 56 14.5 20.3   704 – Lincoln Laboratory ETS, New Mexico MPS 153598
2005 12 05.29641 04 14 51.67 +27 56 12.8 19.7   704 – Lincoln Laboratory ETS, New Mexico MPS 153598
2007 01 17.52015 12 10 51.85 -01 16 42.3 20.2 V G96 – Mt. Lemmon Survey MPS 196307
2007 01 17.52574 12 10 51.96 -01 16 43.3 20.5 V G96 – Mt. Lemmon Survey MPS 196307
2007 01 17.53119 12 10 52.03 -01 16 44.7 20.7 V G96 – Mt. Lemmon Survey MPS 196307
2007 01 17.53664 12 10 52.10 -01 16 45.3 20.3 V G96 – Mt. Lemmon Survey MPS 196307
2007 02 17.41951 12 07 44.56 -01 50 59.0   691 – Steward Observatory, Kitt Peak-Spacewatch MPS 200301
2007 02 17.42488 12 07 44.36 -01 50 58.7 19.9 V G96 – Mt. Lemmon Survey MPS 200301
2007 02 17.42933 12 07 44.29 -01 50 58.6 19.9 V G96 – Mt. Lemmon Survey MPS 200301
2007 02 17.43394 12 07 44.11 -01 50 58.5 20.1 V G96 – Mt. Lemmon Survey MPS 200301
